Location: Unspecified
(49.2170°N, 0.0000°E)
Time: 13:25:46
(UTC+00:00)

Vanguard 3 - Pass Details

Date: 28 January 2021
Orbit: 508 x 3261 km, 33.3° (Epoch: 28 February)

Event Time Altitude Azimuth Distance (km) Brightness Sun altitude
Rises 03:36:34 0° 230° (SW) 3,244 - -38.9°
Reaches altitude 10° 03:39:06 10° 215° (SW) 2,584 - -38.5°
Maximum altitude 03:43:55 23° 164° (SSE) 2,302 - -37.7°
Exits shadow 03:44:47 23° 155° (SSE) 2,414 9.5 -37.6°
Drops below altitude 10° 03:50:57 10° 117° (ESE) 3,953 11.1 -36.6°
Sets 03:56:01 0° 106° (ESE) 5,498 12.1 -35.8°
